Location: Tafessasset
(32.5899°N, 5.4824°W)
Time: 13:51:26
(UTC+00:00)

STARLINK-1038 - Pass Details

Date: 18 February 2020
Orbit: 548 x 551 km, 53.0° (Epoch: 30 March)

Event Time Altitude Azimuth Distance (km) Brightness Sun altitude
Exits shadow 05:19:16 52° 351° (N) 685 3.9 -22.4°
Maximum altitude 05:20:03 66° 45° (NE) 602 3.8 -22.2°
Drops below altitude 10° 05:24:08 10° 128° (SE) 1,815 7.0 -21.4°
Sets 05:26:23 0° 131° (SE) 2,706 7.9 -20.9°
